| time (UTC) | temp C | wind direction | speed KPH | gust KPH | rain 1hr cm | rain 24hr cm | rain mn cm | humidity % | barometer mb |
| 20260905010050 | 21 | 93 | 0.0 | 0.0 | 0.00 | 0.00 | 0.00 | 84 | 1008.4 |
| 20260905004612 | 23 | 93 | 0.0 | 0.0 | 0.00 | 0.00 | 0.00 | 83 | 1008.5 |
| 20260905003024 | 23 | 93 | 0.0 | 0.0 | 0.00 | 0.00 | 0.00 | 81 | 1008.4 |
| 20260905001542 | 24 | 93 | 0.0 | 3.2 | 0.00 | 0.00 | 0.00 | 78 | 1008.5 |
| 20260905000048 | 25 | 78 | 3.2 | 8.0 | 0.00 | 0.00 | 0.00 | 75 | 1008.4 |
| 20260904234557 | 25 | 60 | 3.2 | 11.3 | 0.00 | 0.00 | 0.00 | 73 | 1008.4 |
| 20260904233023 | 26 | 81 | 3.2 | 11.3 | 0.00 | 0.00 | 0.00 | 72 | 1008.4 |
| 20260904231508 | 27 | 105 | 3.2 | 14.5 | 0.00 | 0.00 | 0.00 | 68 | 1008.4 |
| 20260904230017 | 27 | 65 | 3.2 | 8.0 | 0.00 | 0.00 | 0.00 | 67 | 1008.5 |
| 20260904224516 | 28 | 54 | 4.8 | 12.9 | 0.00 | 0.00 | 0.00 | 66 | 1008.4 |
| 20260904223017 | 28 | 68 | 4.8 | 12.9 | 0.00 | 0.00 | 0.00 | 63 | 1008.2 |
| 20260904221529 | 28 | 123 | 4.8 | 11.3 | 0.00 | 0.00 | 0.00 | 64 | 1008.2 |
| 20260904220037 | 28 | 69 | 1.6 | 12.9 | 0.00 | 0.00 | 0.00 | 61 | 1008.2 |
| 20260904214523 | 29 | 61 | 8.0 | 14.5 | 0.00 | 0.00 | 0.00 | 61 | 1008.2 |
| 20260904213042 | 29 | 86 | 4.8 | 9.7 | 0.00 | 0.00 | 0.00 | 63 | 1008.3 |
| 20260904211558 | 29 | 68 | 4.8 | 11.3 | 0.00 | 0.00 | 0.00 | 62 | 1008.3 |
| 20260904210059 | 29 | 44 | 8.0 | 14.5 | 0.00 | 0.00 | 0.00 | 60 | 1008.5 |
| 20260904204610 | 29 | 26 | 6.4 | 14.5 | 0.00 | 0.00 | 0.00 | 61 | 1008.5 |
| 20260904203006 | 28 | 103 | 6.4 | 16.1 | 0.00 | 0.00 | 0.00 | 63 | 1008.4 |
| 20260904201507 | 28 | 85 | 4.8 | 11.3 | 0.00 | 0.00 | 0.00 | 62 | 1008.5 |
| 20260904200017 | 28 | 8 | 6.4 | 12.9 | 0.00 | 0.00 | 0.00 | 65 | 1008.5 |
| 20260904194603 | 29 | 53 | 3.2 | 11.3 | 0.00 | 0.00 | 0.00 | 65 | 1008.6 |
| 20260904193104 | 27 | 26 | 4.8 | 12.9 | 0.00 | 0.00 | 0.00 | 69 | 1008.7 |
| 20260904191548 | 27 | 34 | 1.6 | 9.7 | 0.00 | 0.00 | 0.00 | 67 | 1008.8 |
| 20260904190026 | 28 | 95 | 3.2 | 11.3 | 0.00 | 0.00 | 0.00 | 67 | 1008.8 |
| 20260904184521 | 26 | 30 | 4.8 | 11.3 | 0.00 | 0.00 | 0.00 | 72 | 1008.9 |
| 20260904183050 | 26 | 356 | 4.8 | 12.9 | 0.00 | 0.00 | 0.00 | 72 | 1008.9 |
| 20260904181526 | 27 | 4 | 3.2 | 9.7 | 0.00 | 0.00 | 0.00 | 70 | 1009.0 |
| 20260904180021 | 25 | 49 | 3.2 | 11.3 | 0.00 | 0.00 | 0.00 | 75 | 1008.9 |
| 20260904174556 | 25 | 46 | 4.8 | 12.9 | 0.00 | 0.00 | 0.00 | 75 | 1009.0 |
| 20260904173001 | 25 | 352 | 3.2 | 14.5 | 0.00 | 0.00 | 0.00 | 77 | 1008.9 |
| 20260904171517 | 23 | 52 | 4.8 | 11.3 | 0.00 | 0.00 | 0.00 | 81 | 1008.9 |
| 20260904170042 | 22 | 319 | 4.8 | 11.3 | 0.00 | 0.00 | 0.00 | 83 | 1008.8 |
| 20260904164530 | 22 | 13 | 3.2 | 9.7 | 0.00 | 0.00 | 0.00 | 86 | 1008.7 |
| 20260904163104 | 21 | 324 | 1.6 | 9.7 | 0.00 | 0.00 | 0.00 | 87 | 1008.5 |
| 20260904161605 | 21 | 14 | 3.2 | 9.7 | 0.00 | 0.00 | 0.00 | 88 | 1008.5 |
| 20260904160021 | 20 | 340 | 3.2 | 8.0 | 0.00 | 0.00 | 0.00 | 91 | 1008.5 |
| 20260904154527 | 20 | 325 | 1.6 | 9.7 | 0.00 | 0.00 | 0.00 | 92 | 1008.3 |
| 20260904153057 | 20 | 312 | 3.2 | 9.7 | 0.00 | 0.00 | 0.00 | 93 | 1008.2 |
| 20260904151551 | 19 | 326 | 3.2 | 9.7 | 0.00 | 0.00 | 0.00 | 94 | 1008.2 |
| 20260904150011 | 19 | 360 | 3.2 | 9.7 | 0.00 | 0.00 | 0.00 | 94 | 1008.0 |
| 20260904144512 | 18 | 355 | 3.2 | 8.0 | 0.00 | 0.00 | 0.00 | 94 | 1008.0 |
| 20260904143038 | 18 | 323 | 1.6 | 8.0 | 0.00 | 0.00 | 0.00 | 94 | 1007.9 |
| 20260904141553 | 18 | 299 | 1.6 | 8.0 | 0.00 | 0.00 | 0.00 | 94 | 1007.8 |
| 20260904140113 | 18 | 334 | 1.6 | 8.0 | 0.00 | 0.00 | 0.00 | 94 | 1007.5 |
| 20260904134601 | 18 | 359 | 3.2 | 11.3 | 0.00 | 0.00 | 0.00 | 94 | 1007.5 |
| 20260904133018 | 18 | 340 | 4.8 | 9.7 | 0.00 | 0.00 | 0.00 | 94 | 1007.5 |
| 20260904131530 | 18 | 326 | 4.8 | 11.3 | 0.00 | 0.00 | 0.00 | 94 | 1007.3 |
| 20260904130046 | 18 | 302 | 3.2 | 9.7 | 0.00 | 0.00 | 0.00 | 94 | 1007.1 |
| 20260904124541 | 18 | 337 | 4.8 | 9.7 | 0.00 | 0.00 | 0.00 | 94 | 1006.8 |
| 20260904123023 | 18 | 310 | 1.6 | 8.0 | 0.00 | 0.00 | 0.00 | 94 | 1006.6 |
| 20260904121538 | 17 | 338 | 3.2 | 11.3 | 0.00 | 0.00 | 0.00 | 94 | 1006.4 |
| 20260904114517 | 18 | 252 | 4.8 | 11.3 | 0.00 | 0.00 | 0.00 | 93 | 1006.1 |
| 20260904113100 | 18 | 285 | 3.2 | 9.7 | 0.00 | 0.00 | 0.00 | 93 | 1006.1 |
| 20260904111554 | 18 | 255 | 3.2 | 9.7 | 0.00 | 0.00 | 0.00 | 93 | 1006.0 |
| 20260904110036 | 18 | 294 | 1.6 | 8.0 | 0.00 | 0.00 | 0.00 | 92 | 1005.9 |
| 20260904104559 | 18 | 289 | 3.2 | 11.3 | 0.00 | 0.00 | 0.00 | 92 | 1005.9 |
| 20260904103015 | 18 | 291 | 3.2 | 11.3 | 0.00 | 0.00 | 0.00 | 91 | 1005.7 |
| 20260904101508 | 18 | 304 | 6.4 | 12.9 | 0.00 | 0.00 | 0.00 | 91 | 1005.6 |
| 20260904100058 | 18 | 285 | 4.8 | 12.9 | 0.00 | 0.00 | 0.00 | 91 | 1005.6 |
| 20260904094556 | 18 | 315 | 3.2 | 11.3 | 0.00 | 0.00 | 0.00 | 91 | 1005.5 |
| 20260904093049 | 18 | 301 | 4.8 | 12.9 | 0.00 | 0.00 | 0.00 | 90 | 1005.4 |
| 20260904091506 | 18 | 308 | 6.4 | 17.7 | 0.00 | 0.00 | 0.00 | 90 | 1005.2 |
| 20260904090037 | 19 | 305 | 8.0 | 14.5 | 0.00 | 0.00 | 0.00 | 90 | 1005.3 |
| 20260904084606 | 19 | 304 | 6.4 | 14.5 | 0.00 | 0.00 | 0.00 | 89 | 1005.3 |
| 20260904083011 | 19 | 304 | 6.4 | 16.1 | 0.00 | 0.00 | 0.00 | 88 | 1005.0 |
| 20260904081524 | 20 | 304 | 3.2 | 9.7 | 0.00 | 0.00 | 0.00 | 88 | 1004.9 |
| 20260904080027 | 20 | 300 | 3.2 | 8.0 | 0.00 | 0.00 | 0.00 | 87 | 1004.9 |
| 20260904074539 | 21 | 318 | 1.6 | 9.7 | 0.00 | 0.00 | 0.00 | 84 | 1004.7 |
| 20260904073056 | 22 | 317 | 3.2 | 14.5 | 0.00 | 0.00 | 0.00 | 81 | 1004.6 |
| 20260904071526 | 22 | 8 | 3.2 | 11.3 | 0.00 | 0.00 | 0.00 | 82 | 1004.1 |
| 20260904070056 | 23 | 213 | 6.4 | 14.5 | 0.00 | 0.00 | 0.00 | 81 | 1003.8 |
| 20260904064511 | 23 | 248 | 6.4 | 19.3 | 0.00 | 0.00 | 0.00 | 79 | 1003.6 |
| 20260904063102 | 23 | 217 | 8.0 | 19.3 | 0.00 | 0.00 | 0.00 | 78 | 1003.5 |
| 20260904061550 | 24 | 238 | 6.4 | 20.9 | 0.00 | 0.00 | 0.00 | 76 | 1003.3 |
| 20260904060051 | 25 | 263 | 9.7 | 19.3 | 0.00 | 0.00 | 0.00 | 75 | 1003.3 |
| 20260904054529 | 25 | 220 | 8.0 | 17.7 | 0.00 | 0.00 | 0.00 | 74 | 1003.1 |
| 20260904053101 | 25 | 243 | 11.3 | 22.5 | 0.00 | 0.00 | 0.00 | 73 | 1003.1 |
| 20260904051556 | 25 | 231 | 11.3 | 22.5 | 0.00 | 0.00 | 0.00 | 72 | 1002.9 |
| 20260904050053 | 25 | 212 | 6.4 | 14.5 | 0.00 | 0.00 | 0.00 | 72 | 1003.0 |
| 20260904044521 | 26 | 176 | 9.7 | 17.7 | 0.00 | 0.00 | 0.00 | 71 | 1002.9 |
| 20260904043020 | 25 | 229 | 6.4 | 12.9 | 0.00 | 0.00 | 0.00 | 72 | 1002.9 |
| 20260904041554 | 26 | 224 | 8.0 | 17.7 | 0.00 | 0.00 | 0.00 | 71 | 1002.9 |
| 20260904040014 | 26 | 192 | 8.0 | 16.1 | 0.00 | 0.00 | 0.00 | 70 | 1002.8 |
| 20260904034546 | 26 | 179 | 8.0 | 19.3 | 0.00 | 0.00 | 0.00 | 69 | 1002.7 |
| 20260904033010 | 26 | 208 | 8.0 | 17.7 | 0.00 | 0.00 | 0.00 | 70 | 1002.7 |
| 20260904031530 | 26 | 176 | 8.0 | 17.7 | 0.00 | 0.00 | 0.00 | 69 | 1002.6 |
| 20260904030115 | 26 | 134 | 8.0 | 17.7 | 0.00 | 0.00 | 0.00 | 70 | 1002.5 |
| 20260904024558 | 25 | 193 | 6.4 | 16.1 | 0.00 | 0.00 | 0.00 | 71 | 1002.5 |
| 20260904023030 | 25 | 243 | 6.4 | 14.5 | 0.00 | 0.00 | 0.00 | 71 | 1002.4 |
| 20260904021523 | 25 | 158 | 4.8 | 11.3 | 0.00 | 0.00 | 0.00 | 73 | 1002.1 |
| 20260904020049 | 25 | 205 | 6.4 | 12.9 | 0.00 | 0.00 | 0.00 | 73 | 1002.1 |
| 20260904014505 | 25 | 224 | 6.4 | 11.3 | 0.00 | 0.00 | 0.00 | 72 | 1001.8 |
| 20260904013049 | 25 | 178 | 4.8 | 11.3 | 0.00 | 0.00 | 0.00 | 71 | 1001.6 |
| 20260904011551 | 25 | 190 | 4.8 | 9.7 | 0.00 | 0.00 | 0.00 | 68 | 1001.6 |